Location: Le Domaine
(47.0333°N, 76.5361°W)
Time: 10:16:34
(UTC-05:00)

S-56A Canister/Altair - Pass Details

Date: 28 November 2019
Orbit: 632 x 2500 km, 38.9° (Epoch: 14 December)

Event Time Altitude Azimuth Distance (km) Brightness Sun altitude
Rises 15:21:50 0° 248° (WSW) 6,026 13.6 7.2°
Reaches altitude 10° 15:26:09 10° 245° (WSW) 4,861 13.5 6.6°
Maximum altitude 15:38:46 54° 174° (S) 2,114 10.1 5.0°
Drops below altitude 10° 15:47:28 10° 101° (E) 3,426 10.5 3.8°
Sets 15:50:00 0° 96° (E) 4,176 10.8 3.5°
